Weather History for Limnos, Greece

Change the Weather History Date:

Sunday, October 6, 2013

  Actual Average Record
Temperature  
Mean Temperature 51 °F -  
Max Temperature 63 °F 66 °F 78 °F (1999)
Min Temperature 39 °F 53 °F 35 °F (1996)
Degree Days  
Heating Degree Days 14    
Growing Degree Days 1 (Base 50)    
Moisture  
Dew Point 38 °F    
Average Humidity 61    
Maximum Humidity 87    
Minimum Humidity 22    
Precipitation  
Precipitation 0.00 in 0.06 in - ()
Sea Level Pressure  
Sea Level Pressure 30.32 in    
Wind  
Wind Speed 4 mph ()    
Max Wind Speed 13 mph    
Max Gust Speed -    
Visibility 6.2 miles    
Events      
Averages and records for this station are not official NWS values.
T = Trace of Precipitation, MM = Missing Value Source: Averaged Metar Reports

Daily Weather History Graph

Daily Weather History Graph

Search for Another Location

Airport:

Trip Planner

Search our weather history database for the weather conditions in past years. The results will help you decide how hot, cold, wet, or windy it might be!

Date:

Astronomy

Oct. 06, 2013 Rise Set
Actual Time 7:20 AM EEST 6:53 PM EEST
Civil Twilight 6:53 AM EEST 7:20 PM EEST
Nautical Twilight 6:21 AM EEST 7:51 PM EEST
Astronomical Twilight 5:50 AM EEST 8:23 PM EEST
Moon 8:43 AM EEST (10/6) 7:39 PM EEST (10/6)
Length of Visible Light 12h 27m
Length of Day
11h 33m
New Moon, 2% of the Moon is Illuminated
Oct 6
New Moon
Oct 12
First Quarter
Oct 19
Full
Oct 27
Last Quarter
Nov 3
New

Hourly Weather History & Observations

Time (EEST) Temp. Windchill Dew Point Humidity Pressure Visibility Wind Dir Wind Speed Gust Speed Precip Events Conditions
12:50 AM 46.4 °F - 35.6 °F 66% 30.30 in - Calm Calm - N/A   Unknown
1:20 AM 42.8 °F - 35.6 °F 76% 30.30 in - Calm Calm - N/A   Unknown
1:50 AM 42.8 °F - 35.6 °F 76% 30.30 in - Variable 2.3 mph - N/A   Unknown
2:20 AM 42.8 °F - 37.4 °F 81% 30.30 in - Calm Calm - N/A   Unknown
2:50 AM 42.8 °F - 35.6 °F 76% 30.30 in - Calm Calm - N/A   Unknown
3:20 AM 41.0 °F - 35.6 °F 81% 30.30 in - Calm Calm - N/A   Unknown
3:50 AM 39.2 °F - 35.6 °F 87% 30.30 in - Variable 2.3 mph - N/A   Unknown
4:20 AM 39.2 °F - 35.6 °F 87% 30.30 in - Variable 2.3 mph - N/A   Unknown
4:50 AM 39.2 °F - 35.6 °F 87% 30.30 in - Calm Calm - N/A   Unknown
5:20 AM 41.0 °F 38.0 °F 35.6 °F 81% 30.30 in - NNW 4.6 mph - N/A   Unknown
5:50 AM 39.2 °F - 35.6 °F 87% 30.30 in - Variable 1.2 mph - N/A   Unknown
6:20 AM 39.2 °F - 35.6 °F 87% 30.30 in - Calm Calm - N/A   Clear
6:50 AM 39.2 °F - 35.6 °F 87% 30.33 in - Calm Calm - N/A   Clear
7:20 AM 39.2 °F - 35.6 °F 87% 30.33 in - Calm Calm - N/A   Clear
7:50 AM 42.8 °F - 39.2 °F 87% 30.33 in 6.2 mi Variable 2.3 mph - N/A   Partly Cloudy
8:20 AM 44.6 °F - 41.0 °F 87% 30.33 in 6.2 mi Calm Calm - N/A   Scattered Clouds
8:50 AM 48.2 °F - 44.6 °F 87% 30.33 in 6.2 mi Variable 3.5 mph - N/A   Scattered Clouds
9:00 AM 49 °F - 45 °F 81% 30.34 in 6 mi 3.5 mph - -   Scattered Clouds
9:20 AM 51.8 °F - 42.8 °F 71% 30.33 in 6.2 mi ENE 8.1 mph - N/A   Scattered Clouds
9:50 AM 55.4 °F - 41.0 °F 58% 30.33 in 6.2 mi ENE 9.2 mph - N/A   Scattered Clouds
10:20 AM 57.2 °F - 39.2 °F 51% 30.33 in 6.2 mi East 10.4 mph - N/A   Scattered Clouds
10:50 AM 59.0 °F - 39.2 °F 48% 30.33 in 6.2 mi ENE 12.7 mph - N/A   Scattered Clouds
11:20 AM 59.0 °F - 39.2 °F 48% 30.33 in 6.2 mi ENE 10.4 mph - N/A   Scattered Clouds
11:50 AM 59.0 °F - 39.2 °F 48% 30.33 in 6.2 mi East 10.4 mph - N/A   Scattered Clouds
12:20 PM 60.8 °F - 37.4 °F 42% 30.33 in 6.2 mi East 10.4 mph - N/A   Scattered Clouds
12:50 PM 60.8 °F - 35.6 °F 39% 30.33 in 6.2 mi ENE 11.5 mph - N/A   Scattered Clouds
1:20 PM 62.6 °F - 35.6 °F 37% 30.33 in 6.2 mi NE 10.4 mph - N/A   Mostly Cloudy
1:50 PM 62.6 °F - 37.4 °F 39% 30.33 in 6.2 mi NE 8.1 mph - N/A   Mostly Cloudy
2:20 PM 62.6 °F - 33.8 °F 34% 30.33 in 6.2 mi NNE 9.2 mph - N/A   Mostly Cloudy
2:50 PM 62.6 °F - 33.8 °F 34% 30.33 in 6.2 mi NNE 9.2 mph - N/A   Scattered Clouds
3:00 PM 63 °F - 33 °F 22% 30.34 in 6 mi NNE 9.2 mph - -   Scattered Clouds
3:20 PM 62.6 °F - 37.4 °F 39% 30.33 in 6.2 mi NNE 9.2 mph - N/A   Scattered Clouds
3:50 PM 62.6 °F - 37.4 °F 39% 30.33 in 6.2 mi NNE 9.2 mph - N/A   Scattered Clouds
4:20 PM 60.8 °F - 35.6 °F 39% 30.30 in 6.2 mi NE 9.2 mph - N/A   Scattered Clouds
4:50 PM 62.6 °F - 37.4 °F 39% 30.30 in - NNE 9.2 mph - N/A   Clear
5:20 PM 60.8 °F - 37.4 °F 42% 30.30 in - NNE 9.2 mph - N/A   Clear
5:50 PM 59.0 °F - 37.4 °F 45% 30.30 in 6.2 mi NNE 8.1 mph - N/A   Scattered Clouds
6:20 PM 59.0 °F - 37.4 °F 45% 30.30 in 6.2 mi NNE 6.9 mph - N/A   Scattered Clouds
6:50 PM 57.2 °F - 35.6 °F 44% 30.30 in 6.2 mi NNE 5.8 mph - N/A   Scattered Clouds
7:20 PM 55.4 °F - 37.4 °F 51% 30.30 in 6.2 mi Variable 3.5 mph - N/A   Scattered Clouds
7:50 PM 53.6 °F - 37.4 °F 54% 30.33 in 6.2 mi Variable 3.5 mph - N/A   Scattered Clouds
8:20 PM 51.8 °F - 39.2 °F 62% 30.33 in 6.2 mi Variable 2.3 mph - N/A   Scattered Clouds
8:50 PM 51.8 °F - 39.2 °F 62% 30.33 in 6.2 mi NE 4.6 mph - N/A   Scattered Clouds
9:00 PM 51 °F - 39 °F 54% 30.34 in 6 mi NE 4.6 mph - -   Scattered Clouds
9:20 PM 50.0 °F - 37.4 °F 62% 30.33 in 6.2 mi NNE 4.6 mph - N/A   Scattered Clouds
9:50 PM 50.0 °F - 39.2 °F 66% 30.33 in 6.2 mi Variable 3.5 mph - N/A   Scattered Clouds
10:20 PM 51.8 °F - 37.4 °F 58% 30.33 in - NNE 5.8 mph - N/A   Unknown
10:50 PM 51.8 °F - 39.2 °F 62% 30.33 in - NE 5.8 mph - N/A   Unknown
11:20 PM 50.0 °F - 39.2 °F 66% 30.36 in - NE 4.6 mph - N/A   Unknown
11:50 PM 50.0 °F - 39.2 °F 66% 30.36 in - NE 4.6 mph - N/A   Unknown